Hourly Weather Russkie Ploski

Today, 20 April, Tuesday

Time Temperature Precipitation Wind Pressure Humidity
00:00 +3°C° 0 mm 3 mps 755 mmHg 64%
01:00 +2°C° 0 mm 3 mps 755 mmHg 67%
02:00 +1°C° 0 mm 3 mps 755 mmHg 69%
03:00 0°C° 0 mm 3 mps 755 mmHg 70%
04:00 0°C° 0 mm 3 mps 755 mmHg 72%
05:00 0°C° 0 mm 3 mps 754 mmHg 73%
06:00 0°C° 0 mm 4 mps 754 mmHg 68%
07:00 +1°C° 0 mm 4 mps 754 mmHg 63%
08:00 +3°C° 0 mm 4 mps 754 mmHg 58%
09:00 +4°C° 0 mm 4 mps 754 mmHg 57%
10:00 +6°C° 0 mm 5 mps 753 mmHg 55%
11:00 +7°C° 0 mm 5 mps 753 mmHg 54%
12:00 +7°C° 0 mm 5 mps 753 mmHg 58%
13:00 +6°C° 0 mm 5 mps 752 mmHg 61%
14:00 +6°C° 0 mm 4 mps 752 mmHg 64%
15:00 +5°C° 0.3 mm 4 mps 752 mmHg 73%
16:00 +4°C° 0.3 mm 4 mps 751 mmHg 83%
17:00 +3°C° 0.3 mm 4 mps 751 mmHg 92%
18:00 +3°C° 0.3 mm 4 mps 751 mmHg 93%
19:00 +3°C° 0.3 mm 4 mps 750 mmHg 94%
20:00 +3°C° 0.3 mm 4 mps 750 mmHg 95%
21:00 +3°C° 0.1 mm 4 mps 749 mmHg 95%
22:00 +3°C° 0.1 mm 4 mps 748 mmHg 95%
23:00 +3°C° 0.1 mm 3 mps 747 mmHg 95%

Tomorrow, 21 April, Wednesday

Time Temperature Precipitation Wind Pressure Humidity
00:00 +3°C° 0.3 mm 4 mps 747 mmHg 94%
01:00 +1°C° 0.3 mm 4 mps 746 mmHg 93%
02:00 +1°C° 0.3 mm 4 mps 745 mmHg 92%
03:00 0°C° 1 mm 4 mps 744 mmHg 93%
04:00 0°C° 1 mm 4 mps 743 mmHg 95%
05:00 -1°C° 1 mm 4 mps 742 mmHg 96%
06:00 -1°C° 0.7 mm 4 mps 741 mmHg 96%
07:00 0°C° 0.7 mm 3 mps 741 mmHg 96%
08:00 0°C° 0.7 mm 3 mps 740 mmHg 97%
09:00 +1°C° 0.4 mm 3 mps 739 mmHg 97%
10:00 +1°C° 0.4 mm 3 mps 739 mmHg 97%
11:00 +1°C° 0.4 mm 3 mps 738 mmHg 96%
12:00 +2°C° 0.3 mm 2 mps 738 mmHg 97%
13:00 +2°C° 0.3 mm 2 mps 737 mmHg 97%
14:00 +3°C° 0.3 mm 1 mps 737 mmHg 98%
15:00 +3°C° 0.1 mm 1 mps 737 mmHg 98%
16:00 +2°C° 0.1 mm 2 mps 738 mmHg 98%
17:00 +2°C° 0.1 mm 2 mps 738 mmHg 98%
18:00 +1°C° 0.1 mm 3 mps 739 mmHg 97%
19:00 +1°C° 0.1 mm 3 mps 739 mmHg 97%
20:00 +1°C° 0.1 mm 3 mps 740 mmHg 97%
21:00 +1°C° 0 mm 3 mps 740 mmHg 96%
22:00 +1°C° 0 mm 3 mps 741 mmHg 96%
23:00 +2°C° 0 mm 3 mps 741 mmHg 95%

Day after tomorrow, 22 April, Thursday

Time Temperature Precipitation Wind Pressure Humidity
00:00 +2°C° 0 mm 3 mps 741 mmHg 95%
01:00 +2°C° 0 mm 3 mps 742 mmHg 95%
02:00 +2°C° 0 mm 3 mps 742 mmHg 95%
03:00 +2°C° 0.1 mm 3 mps 742 mmHg 95%
04:00 +1°C° 0.1 mm 4 mps 742 mmHg 94%
05:00 +1°C° 0.1 mm 4 mps 742 mmHg 94%
06:00 +3°C° 0 mm 4 mps 742 mmHg 91%
07:00 +4°C° 0 mm 4 mps 743 mmHg 88%
08:00 +6°C° 0 mm 4 mps 743 mmHg 86%
09:00 +7°C° 0 mm 4 mps 743 mmHg 82%
10:00 +8°C° 0 mm 4 mps 743 mmHg 79%
11:00 +10°C° 0 mm 4 mps 744 mmHg 76%
12:00 +10°C° 0.4 mm 4 mps 744 mmHg 76%
13:00 +10°C° 0.4 mm 4 mps 744 mmHg 76%
14:00 +10°C° 0.4 mm 4 mps 745 mmHg 76%
15:00 +10°C° 0.1 mm 4 mps 745 mmHg 78%
16:00 +10°C° 0.1 mm 3 mps 745 mmHg 80%
17:00 +10°C° 0.1 mm 3 mps 745 mmHg 82%
18:00 +8°C° 0.1 mm 3 mps 746 mmHg 86%
19:00 +7°C° 0.1 mm 3 mps 746 mmHg 90%
20:00 +6°C° 0.1 mm 2 mps 746 mmHg 94%
21:00 +6°C° 0 mm 2 mps 746 mmHg 95%
22:00 +5°C° 0 mm 2 mps 746 mmHg 95%
23:00 +5°C° 0 mm 2 mps 746 mmHg 95%

23 April, Friday

Time Temperature Precipitation Wind Pressure Humidity
00:00 +5°C° 0 mm 2 mps 746 mmHg 95%
01:00 +5°C° 0 mm 2 mps 746 mmHg 95%
02:00 +4°C° 0 mm 2 mps 746 mmHg 95%
03:00 +5°C° 0 mm 2 mps 746 mmHg 95%
04:00 +5°C° 0 mm 2 mps 746 mmHg 95%
05:00 +4°C° 0 mm 3 mps 746 mmHg 95%
06:00 +5°C° 0 mm 3 mps 746 mmHg 89%
07:00 +8°C° 0 mm 3 mps 746 mmHg 84%
08:00 +10°C° 0 mm 4 mps 746 mmHg 79%
09:00 +11°C° 0 mm 4 mps 745 mmHg 76%
10:00 +13°C° 0 mm 5 mps 745 mmHg 72%
11:00 +14°C° 0 mm 5 mps 745 mmHg 68%
12:00 +14°C° 0.4 mm 5 mps 745 mmHg 70%
13:00 +14°C° 0.4 mm 4 mps 745 mmHg 72%
14:00 +13°C° 0.4 mm 4 mps 745 mmHg 74%
15:00 +13°C° 0.6 mm 4 mps 744 mmHg 75%
16:00 +13°C° 0.6 mm 4 mps 744 mmHg 75%
17:00 +13°C° 0.6 mm 4 mps 744 mmHg 76%
18:00 +12°C° 0.5 mm 5 mps 743 mmHg 79%
19:00 +10°C° 0.5 mm 5 mps 743 mmHg 81%
20:00 +9°C° 0.5 mm 6 mps 743 mmHg 84%
21:00 +9°C° 0.8 mm 5 mps 742 mmHg 87%
22:00 +8°C° 0.8 mm 4 mps 742 mmHg 90%
23:00 +8°C° 0.8 mm 3 mps 742 mmHg 92%

24 April, Saturday

Time Temperature Precipitation Wind Pressure Humidity
00:00 +7°C° 1.2 mm 3 mps 742 mmHg 93%
01:00 +5°C° 1.2 mm 3 mps 742 mmHg 94%
02:00 +4°C° 1.2 mm 3 mps 742 mmHg 95%
03:00 +5°C° 0.2 mm 2 mps 743 mmHg 93%
04:00 +4°C° 0.2 mm 2 mps 743 mmHg 92%
05:00 +4°C° 0.2 mm 2 mps 743 mmHg 91%
06:00 +4°C° 0.1 mm 2 mps 743 mmHg 88%
07:00 +5°C° 0.1 mm 2 mps 743 mmHg 86%
08:00 +4°C° 0.1 mm 3 mps 743 mmHg 83%
09:00 +6°C° 0 mm 2 mps 743 mmHg 77%
10:00 +6°C° 0 mm 2 mps 743 mmHg 71%
11:00 +7°C° 0 mm 2 mps 743 mmHg 65%
12:00 +7°C° 0.3 mm 2 mps 743 mmHg 63%
13:00 +8°C° 0.3 mm 2 mps 743 mmHg 62%
14:00 +8°C° 0.3 mm 3 mps 742 mmHg 60%
15:00 +8°C° 0.5 mm 2 mps 742 mmHg 66%
16:00 +7°C° 0.5 mm 2 mps 742 mmHg 71%
17:00 +7°C° 0.5 mm 2 mps 742 mmHg 77%
18:00 +5°C° 0.5 mm 2 mps 742 mmHg 83%
19:00 +4°C° 0.5 mm 2 mps 743 mmHg 89%
20:00 +3°C° 0.5 mm 2 mps 743 mmHg 95%
21:00 +3°C° 0.3 mm 2 mps 743 mmHg 95%
22:00 +3°C° 0.3 mm 2 mps 743 mmHg 94%
23:00 +2°C° 0.3 mm 2 mps 743 mmHg 94%

25 April, Sunday

Time Temperature Precipitation Wind Pressure Humidity
00:00 +2°C° 0 mm 2 mps 743 mmHg 93%
01:00 0°C° 0 mm 3 mps 743 mmHg 92%
02:00 0°C° 0 mm 3 mps 743 mmHg 91%
03:00 +1°C° 0 mm 2 mps 743 mmHg 91%
04:00 -1°C° 0 mm 2 mps 743 mmHg 90%
05:00 -1°C° 0 mm 2 mps 743 mmHg 90%
06:00 +1°C° 0 mm 2 mps 743 mmHg 81%
07:00 +3°C° 0 mm 2 mps 743 mmHg 72%
08:00 +5°C° 0 mm 2 mps 743 mmHg 64%
09:00 +6°C° 0 mm 2 mps 743 mmHg 58%
10:00 +7°C° 0 mm 2 mps 743 mmHg 52%
11:00 +8°C° 0 mm 2 mps 743 mmHg 46%
12:00 +8°C° 0 mm 2 mps 743 mmHg 45%
13:00 +8°C° 0 mm 3 mps 743 mmHg 44%
14:00 +9°C° 0 mm 3 mps 743 mmHg 43%
15:00 +7°C° 0.3 mm 3 mps 743 mmHg 54%
16:00 +5°C° 0.3 mm 3 mps 743 mmHg 64%
17:00 +4°C° 0.3 mm 3 mps 743 mmHg 75%
18:00 +3°C° 0.2 mm 3 mps 743 mmHg 81%
19:00 +4°C° 0.2 mm 2 mps 743 mmHg 87%
20:00 +3°C° 0.2 mm 2 mps 742 mmHg 93%
21:00 +2°C° 0.5 mm 2 mps 742 mmHg 92%
22:00 +2°C° 0.5 mm 2 mps 742 mmHg 91%
23:00 +2°C° 0.5 mm 2 mps 742 mmHg 91%
Show more